TimeCDT,TemperatureF,Dew PointF,Humidity,Sea Level PressureIn,VisibilityMPH,Wind Direction,Wind SpeedMPH,Gust SpeedMPH,PrecipitationIn,Events,Conditions,WindDirDegrees,DateUTC
12:27 AM,61.0,60.1,97,29.67,10.0,SW,6.9,-,N/A,,Mostly Cloudy,230,2014-03-12 05:27:00
12:53 AM,60.1,59.0,96,29.66,8.0,SSW,6.9,-,N/A,,Overcast,200,2014-03-12 05:53:00
1:06 AM,60.1,59.0,96,29.66,8.0,SSW,8.1,-,N/A,,Mostly Cloudy,200,2014-03-12 06:06:00
1:53 AM,61.0,60.1,97,29.65,7.0,SSW,9.2,-,N/A,,Overcast,200,2014-03-12 06:53:00
2:01 AM,61.0,60.1,97,29.65,7.0,SSW,10.4,-,N/A,,Overcast,200,2014-03-12 07:01:00
2:25 AM,62.1,60.1,93,29.66,8.0,SSW,11.5,-,N/A,,Overcast,210,2014-03-12 07:25:00
2:53 AM,62.1,60.1,93,29.65,9.0,SW,12.7,-,N/A,,Overcast,220,2014-03-12 07:53:00
3:53 AM,63.0,60.1,90,29.65,8.0,SW,13.8,-,N/A,,Overcast,220,2014-03-12 08:53:00
4:00 AM,63.0,60.1,90,29.65,8.0,SW,16.1,24.2,N/A,,Overcast,230,2014-03-12 09:00:00
4:53 AM,62.1,59.0,90,29.65,8.0,SW,11.5,-,N/A,,Overcast,230,2014-03-12 09:53:00
5:53 AM,61.0,59.0,93,29.68,7.0,SW,10.4,-,N/A,,Overcast,230,2014-03-12 10:53:00
6:05 AM,61.0,59.0,93,29.69,7.0,WSW,8.1,-,N/A,,Overcast,250,2014-03-12 11:05:00
6:53 AM,61.0,55.9,83,29.72,10.0,WNW,11.5,21.9,N/A,,Overcast,300,2014-03-12 11:53:00
7:16 AM,60.1,48.9,67,29.75,10.0,NW,16.1,25.3,N/A,,Overcast,310,2014-03-12 12:16:00
7:53 AM,57.0,46.9,69,29.79,10.0,NW,16.1,33.4,N/A,,Overcast,320,2014-03-12 12:53:00
8:16 AM,55.0,45.0,69,29.82,8.0,NNW,18.4,33.4,N/A,,Overcast,330,2014-03-12 13:16:00
8:53 AM,52.0,43.0,71,29.86,10.0,NNW,19.6,25.3,N/A,,Overcast,340,2014-03-12 13:53:00
9:53 AM,51.1,41.0,68,29.91,10.0,NNW,16.1,32.2,N/A,,Overcast,330,2014-03-12 14:53:00
10:53 AM,51.1,37.9,61,29.95,10.0,NNW,17.3,27.6,N/A,,Overcast,340,2014-03-12 15:53:00
11:53 AM,52.0,36.0,54,29.99,10.0,NNW,18.4,27.6,N/A,,Mostly Cloudy,340,2014-03-12 16:53:00
12:53 PM,54.0,35.1,49,30.00,10.0,NNW,18.4,25.3,N/A,,Overcast,340,2014-03-12 17:53:00
1:53 PM,54.0,35.1,49,30.02,10.0,North,20.7,31.1,N/A,,Overcast,10,2014-03-12 18:53:00
2:53 PM,54.0,34.0,47,30.03,10.0,NW,16.1,25.3,N/A,,Overcast,320,2014-03-12 19:53:00
3:04 PM,54.0,34.0,47,30.03,1.0,NNW,17.3,28.8,N/A,,Haze,330,2014-03-12 20:04:00
3:09 PM,55.0,33.1,43,30.03,5.0,NNW,20.7,28.8,N/A,,Haze,340,2014-03-12 20:09:00
3:53 PM,55.0,32.0,42,30.05,10.0,NNW,19.6,31.1,N/A,,Partly Cloudy,340,2014-03-12 20:53:00
4:53 PM,55.0,30.0,38,30.06,10.0,NW,15.0,26.5,N/A,,Scattered Clouds,320,2014-03-12 21:53:00
5:53 PM,54.0,28.0,37,30.09,10.0,North,13.8,24.2,N/A,,Partly Cloudy,350,2014-03-12 22:53:00
6:53 PM,51.1,25.0,36,30.10,10.0,NNW,9.2,21.9,N/A,,Clear,340,2014-03-12 23:53:00
7:53 PM,48.9,25.0,39,30.13,10.0,NNW,6.9,-,N/A,,Clear,340,2014-03-13 00:53:00
8:53 PM,42.1,28.9,60,30.15,10.0,Calm,Calm,-,N/A,,Clear,0,2014-03-13 01:53:00
9:53 PM,41.0,30.9,67,30.17,10.0,Calm,Calm,-,N/A,,Clear,0,2014-03-13 02:53:00
10:53 PM,37.0,30.9,79,30.18,10.0,Calm,Calm,-,N/A,,Clear,0,2014-03-13 03:53:00
11:53 PM,36.0,33.1,89,30.19,10.0,South,3.5,-,N/A,,Clear,190,2014-03-13 04:53:00